Location: Isola Pescaroli
(45.0500°N, 10.1667°E)
Time: 02:02:16
(UTC+00:00)

SL-4 R/B - Pass Details

Date: 20 June 2021
Orbit: 428 x 662 km, 51.6° (Epoch: 29 July)

Event Time Altitude Azimuth Distance (km) Brightness Sun altitude
Rises 20:14:30 0° 197° (SSW) 2,811 5.3 -9.4°
Reaches altitude 10° 20:17:21 10° 180° (S) 1,866 4.3 -9.7°
Maximum altitude 20:20:20 19° 135° (SE) 1,341 3.3 -10.1°
Drops below altitude 10° 20:23:13 10° 89° (E) 1,769 4.2 -10.4°
Sets 20:25:49 0° 71° (ENE) 2,611 5.3 -10.7°
